Overview Statistics Trail Chart Weather Telemetry Raw packets
 

This is the latest recevied weather packets stored in our database for station/object KW6V-15. If no packets are shown the sender has not sent any weather packets the latest 10 day(s).

<< 4 5 6 7 8 9 10 >>
Time Temp. Humidity Pressure Rain* Wind** Luminosity Snow
1788372024 16.67° C 86% 1017.2 hPa 0 mm - - -
1788368440 16.11° C 91% 1016.6 hPa 0 mm - - -
1788366640 15° C 92% 1016.6 hPa 0 mm - - -
1788364840 15° C 92% 1016.4 hPa 0 mm - - -
1788363054 15° C 92% 1016.1 hPa 0 mm - - -
1788361234 14.44° C 92% 1015.9 hPa 0 mm - - -
1788359445 14.44° C 92% 1015.7 hPa 0 mm - - -
1788357675 13.89° C 92% 1015.6 hPa 0 mm - - -
1788355828 13.89° C 92% 1015.2 hPa 0 mm - - -
1788354053 13.89° C 92% 1015.1 hPa 0 mm - - -
1788352259 13.89° C 92% 1015.2 hPa 0 mm - - -
1788350431 13.89° C 91% 1015 hPa 0 mm - - -
1788348635 13.89° C 91% 1015 hPa 0 mm - - -
1788346850 13.89° C 91% 1015 hPa 0 mm - - -
1788345070 13.33° C 91% 1015 hPa 0 mm - - -
1788343232 13.33° C 91% 1015.1 hPa 0 mm - - -
1788341437 13.89° C 91% 1015.5 hPa 0 mm - - -
1788337857 13.33° C 91% 1015.7 hPa 0 mm - - -
1788336053 13.89° C 91% 1015.7 hPa 0 mm - - -
1788334275 13.89° C 91% 1015.7 hPa 0 mm - - -
1788332464 13.89° C 91% 1015.8 hPa 0 mm - - -
1788330662 13.89° C 91% 1015.9 hPa 0 mm - - -
1788328835 13.33° C 91% 1016 hPa 0 mm - - -
1788325235 12.78° C 90% 1016.1 hPa 0 mm - - -
1788323450 13.33° C 90% 1015.6 hPa 0 mm - - -

* Rain latest hour (hover to see other rain measurements)
** Current wind speed in m/s (hover to see current wind gust speed)